Search your local weather  

 
Advertise Here

Hazardous Weather Conditions

High Surf Advisory issued July 5 at 10:17PM PDT until July 6 at 12:00PM PDT
High Surf Advisory issued July 6 at 4:07AM PDT until July 6 at 12:00PM PDT

Current Conditions: LOS ANGELES, CALIFORNIA

Fair


63.0 F

Last Updated on Jul 6 2020, 3:51 am PDT
Humidity: 87%
Wind Speed: N 0.0 mph
Barometer 29.83 in
Dewpoint: 59.0 F
Visibility: 10.00 mi
Precip: --
Heat Index: NA
Wind Chill: NA
Current conditions at:

Santa Monica, Santa Monica Municipal Airport, CA (KSMO)

Lat: 34.01583 Lon: -118.45139

Local Radar Image active severe weather and emergency alerts image image weather storm and storm spotter reports image weather observation monitoring service image
Local
Radar
Active
Alerts
Storm Reports Weather
Monitoring

5 Day Forecast for LOS ANGELES, CALIFORNIA (90001)

Monday

Mostly Sunny

High 90 °F
Monday
Night
Mostly Clear

Low 65 °F
Tuesday

Fog

High 85 °F
Tuesday
Night
Overnight Fog
Low 65 °F
Wednesday

Mostly Sunny

High 82 °F
Wednesday
Night
Partly Cloudy

Low 63 °F
Thursday

Sunny

High 82 °F
Thursday
Night
Mostly Clear

Low 65 °F
Friday

Mostly Sunny

High 87 °F

Sign-up For Email & Text Message Weather Alert Notification Services


Advertise Here

Observation History for LOS ANGELES, CALIFORNIA


Time Wind
(mph)
Vis
(mi)
Weather Precip (in) Temperature (F) Relative
Humidity
Wind
Chill
(F)
Heat
Index
(F)
Pressure
Air Dwpt altimeter
(in)
sea level
(mb)
3:51 am PDT N 0.0 10.00 Fair -- 63.0 59.0 87% NA NA 29.83 1009.8
2:51 am PDT N 0.0 10.00 Fair -- 65.0 60.1 84% NA NA 29.84 1010.1
1:51 am PDT N 0.0 9.00 Fair -- 65.0 60.1 84% NA NA 29.84 1010.2
12:51 am PDT N 0.0 9.00 Fair -- 66.0 62.1 87% NA NA 29.84 1010.3
11:51 pm PDT N 0.0 9.00 Fair -- 67.0 62.1 84% NA NA 29.84 1010.4
10:51 pm PDT N 0.0 9.00 Fair -- 67.0 62.1 84% NA NA 29.85 1010.7
9:51 pm PDT SW 3.5 10.00 Fair -- 67.0 62.1 84% NA NA 29.86 1010.8
8:51 pm PDT SW 4.6 10.00 Fair -- 68.0 63.0 84% NA NA 29.85 1010.5
7:51 pm PDT SW 5.8 10.00 Fair -- 70.0 62.1 76% NA NA 29.85 1010.5
6:51 pm PDT 5.8 10.00 Fair -- 72.0 62.1 71% NA NA 29.85 1010.5
5:51 pm PDT SW 6.9 10.00 Fair -- 73.0 62.1 69% NA NA 29.85 1010.7
4:51 pm PDT SW 8.1 10.00 Fair -- 76.0 61.0 60% NA NA 29.86 1011.0
3:51 pm PDT SW 10.4 10.00 Fair -- 75.0 59.0 58% NA NA 29.88 1011.8
2:51 pm PDT SW 9.2 7.00 Fair -- 75.0 63.0 66% NA NA 29.90 1012.2
1:51 pm PDT SW 10.4 6.00 Fair with Haze -- 76.0 63.0 64% NA NA 29.91 1012.6
12:51 pm PDT W 9.2 4.00 Fair with Haze -- 75.0 63.0 66% NA NA 29.92 1013.1
11:51 am PDT SW 6.9 4.00 Fair with Haze -- 80.0 62.1 54% NA 81 29.92 1013.1
10:51 am PDT SW 6.9 3.00 Fair with Haze -- 79.0 62.1 56% NA NA 29.93 1013.4
9:51 am PDT N 0.0 1.75 Fair with Haze -- 77.0 57.0 50% NA NA 29.94 1013.6
8:51 am PDT N 0.0 1.25 A Few Clouds with Haze -- 71.0 60.1 68% NA NA 29.95 1013.8
7:51 am PDT N 0.0 2.00 Fair with Haze -- 67.0 62.1 84% NA NA 29.94 1013.8
6:51 am PDT N 0.0 1.75 Partly Cloudy with Haze -- 63.0 57.9 84% NA NA 29.94 1013.7
5:51 am PDT N 0.0 2.50 Fog/Mist -- 62.0 57.9 86% NA NA 29.93 1013.4
4:51 am PDT N 3.5 5.00 Fog/Mist -- 62.0 57.9 86% NA NA 29.92 1013.1

Regional Weather Observation

Los Angeles / USC Campus Downtown, CA (KCQT)

Fair
67.0 F

Burbank - Bob Hope Airport, CA (KBUR)

Fair
69.0 F

Los Angeles, Whiteman Airport, CA (KWHP)

Clear
84.0 F

El Monte, CA (KEMT)

Fair
88.0 F

Los Angeles, Los Angeles International Airport, CA (KLAX)

Patches Fog Fog/Mist
65.0 F

Hawthorne, Hawthorne Municipal Airport, CA (KHHR)

Fair
66.0 F
Advertise Here

Advertise Here